Time,TemperatureF,DewpointF,PressureIn,WindDirection,WindDirectionDegrees,WindSpeedMPH,WindSpeedGustMPH,Humidity,HourlyPrecipIn,Conditions,Clouds,dailyrainin,SoftwareType,DateUTC
2013-02-01 00:00:00,28.0,13.1,29.73,WSW,253,9.0,11.0,53,0.00,,,0.83,Wunderground v.1.15,2013-02-01 05:00:00,
2013-02-01 00:01:00,28.0,13.1,29.73,SSW,200,9.0,11.0,53,0.00,,,0.83,Wunderground v.1.15,2013-02-01 05:01:00,
2013-02-01 00:03:00,28.0,13.1,29.73,West,267,10.0,11.0,53,0.00,,,0.00,Wunderground v.1.15,2013-02-01 05:03:00,
2013-02-01 00:05:00,28.0,13.1,29.73,WNW,294,10.0,11.0,53,0.00,,,0.00,Wunderground v.1.15,2013-02-01 05:05:00,
2013-02-01 00:11:00,28.0,13.1,29.73,WNW,287,9.0,11.0,53,0.00,,,0.00,Wunderground v.1.15,2013-02-01 05:11:00,
2013-02-01 00:17:00,27.9,13.0,29.74,WSW,244,7.0,11.0,53,0.00,,,0.00,Wunderground v.1.15,2013-02-01 05:17:00,
2013-02-01 00:22:00,27.8,13.3,29.74,West,259,5.0,14.0,54,0.00,,,0.00,Wunderground v.1.15,2013-02-01 05:22:00,
2013-02-01 00:28:00,27.8,12.9,29.74,West,263,8.0,14.0,53,0.00,,,0.00,Wunderground v.1.15,2013-02-01 05:28:00,
2013-02-01 00:34:00,27.8,12.9,29.74,WSW,250,10.0,10.0,53,0.00,,,0.00,Wunderground v.1.15,2013-02-01 05:34:00,
2013-02-01 00:39:00,27.8,12.9,29.74,NW,313,8.0,11.0,53,0.00,,,0.00,Wunderground v.1.15,2013-02-01 05:39:00,
2013-02-01 00:45:00,27.7,12.8,29.75,SSW,204,8.0,14.0,53,0.00,,,0.00,Wunderground v.1.15,2013-02-01 05:45:00,
2013-02-01 00:50:00,27.7,12.8,29.74,West,280,8.0,8.0,53,0.00,,,0.00,Wunderground v.1.15,2013-02-01 05:50:00,
2013-02-01 00:56:00,27.7,12.8,29.75,West,263,7.0,9.0,53,0.00,,,0.00,Wunderground v.1.15,2013-02-01 05:56:00,
2013-02-01 01:01:00,27.7,12.8,29.75,SW,219,7.0,7.0,53,0.00,,,0.00,Wunderground v.1.15,2013-02-01 06:01:00,
2013-02-01 01:06:00,27.7,12.8,29.75,West,261,9.0,16.0,53,0.00,,,0.00,Wunderground v.1.15,2013-02-01 06:06:00,
2013-02-01 01:11:00,27.7,13.2,29.75,West,267,9.0,9.0,54,0.00,,,0.00,Wunderground v.1.15,2013-02-01 06:11:00,
2013-02-01 01:17:00,27.6,13.5,29.76,WNW,290,6.0,9.0,55,0.00,,,0.00,Wunderground v.1.15,2013-02-01 06:17:00,
2013-02-01 01:22:00,27.6,13.1,29.76,WSW,244,7.0,7.0,54,0.00,,,0.00,Wunderground v.1.15,2013-02-01 06:22:00,
2013-02-01 01:28:00,27.6,13.5,29.76,WNW,292,6.0,7.0,55,0.00,,,0.00,Wunderground v.1.15,2013-02-01 06:28:00,
2013-02-01 01:34:00,27.6,13.5,29.76,NW,313,5.0,6.0,55,0.00,,,0.00,Wunderground v.1.15,2013-02-01 06:34:00,
2013-02-01 01:39:00,27.5,13.4,29.76,West,264,5.0,7.0,55,0.00,,,0.00,Wunderground v.1.15,2013-02-01 06:39:00,
2013-02-01 01:45:00,27.5,13.4,29.76,SW,217,5.0,7.0,55,0.00,,,0.00,Wunderground v.1.15,2013-02-01 06:45:00,
2013-02-01 01:51:00,27.4,13.7,29.76,West,271,4.0,9.0,56,0.00,,,0.00,Wunderground v.1.15,2013-02-01 06:51:00,
2013-02-01 01:57:00,27.4,13.7,29.76,WSW,258,4.0,12.0,56,0.00,,,0.00,Wunderground v.1.15,2013-02-01 06:57:00,
2013-02-01 02:02:00,27.3,14.1,29.77,SW,231,5.0,5.0,57,0.00,,,0.00,Wunderground v.1.15,2013-02-01 07:02:00,
2013-02-01 02:08:00,27.4,13.7,29.76,SW,235,6.0,11.0,56,0.00,,,0.00,Wunderground v.1.15,2013-02-01 07:08:00,
2013-02-01 02:14:00,27.3,14.1,29.76,WSW,249,6.0,7.0,57,0.00,,,0.00,Wunderground v.1.15,2013-02-01 07:14:00,
2013-02-01 02:20:00,27.3,14.1,29.76,West,277,6.0,18.0,57,0.00,,,0.00,Wunderground v.1.15,2013-02-01 07:20:00,
2013-02-01 02:25:00,27.3,14.1,29.76,WSW,242,6.0,18.0,57,0.00,,,0.00,Wunderground v.1.15,2013-02-01 07:25:00,
2013-02-01 02:31:00,27.2,14.4,29.76,WSW,245,5.0,6.0,58,0.00,,,0.00,Wunderground v.1.15,2013-02-01 07:31:00,
2013-02-01 02:37:00,27.1,14.3,29.76,WNW,285,6.0,8.0,58,0.00,,,0.00,Wunderground v.1.15,2013-02-01 07:37:00,
2013-02-01 02:43:00,27.0,14.6,29.77,WNW,296,5.0,8.0,59,0.00,,,0.00,Wunderground v.1.15,2013-02-01 07:43:00,
2013-02-01 02:48:00,27.0,14.2,29.77,SW,234,4.0,8.0,58,0.00,,,0.00,Wunderground v.1.15,2013-02-01 07:48:00,
2013-02-01 02:54:00,26.9,14.5,29.77,SW,217,5.0,7.0,59,0.00,,,0.00,Wunderground v.1.15,2013-02-01 07:54:00,
2013-02-01 02:59:00,26.9,14.5,29.77,West,264,6.0,9.0,59,0.00,,,0.00,Wunderground v.1.15,2013-02-01 07:59:00,
2013-02-01 03:05:00,27.0,14.9,29.77,West,261,6.0,8.0,60,0.00,,,0.00,Wunderground v.1.15,2013-02-01 08:05:00,
2013-02-01 03:11:00,26.9,14.9,29.77,WNW,290,5.0,5.0,60,0.00,,,0.00,Wunderground v.1.15,2013-02-01 08:11:00,
2013-02-01 03:16:00,26.9,14.9,29.77,WNW,285,5.0,12.0,60,0.00,,,0.00,Wunderground v.1.15,2013-02-01 08:16:00,
2013-02-01 03:22:00,26.9,14.9,29.76,West,270,5.0,5.0,60,0.00,,,0.00,Wunderground v.1.15,2013-02-01 08:22:00,
2013-02-01 03:28:00,26.8,15.1,29.76,West,265,4.0,6.0,61,0.00,,,0.00,Wunderground v.1.15,2013-02-01 08:28:00,
2013-02-01 03:33:00,26.7,15.0,29.76,SW,223,3.0,6.0,61,0.00,,,0.00,Wunderground v.1.15,2013-02-01 08:33:00,
2013-02-01 03:39:00,26.7,15.0,29.76,West,279,4.0,6.0,61,0.00,,,0.00,Wunderground v.1.15,2013-02-01 08:39:00,
2013-02-01 03:44:00,26.6,15.3,29.75,WSW,244,4.0,6.0,62,0.00,,,0.00,Wunderground v.1.15,2013-02-01 08:44:00,
2013-02-01 03:50:00,26.5,15.2,29.75,WSW,252,4.0,4.0,62,0.00,,,0.00,Wunderground v.1.15,2013-02-01 08:50:00,
2013-02-01 03:55:00,26.5,15.2,29.75,SW,231,3.0,6.0,62,0.00,,,0.00,Wunderground v.1.15,2013-02-01 08:55:00,
2013-02-01 04:00:00,26.5,15.2,29.75,SW,228,4.0,5.0,62,0.00,,,0.00,Wunderground v.1.15,2013-02-01 09:00:00,
2013-02-01 04:06:00,26.5,15.6,29.76,West,275,4.0,6.0,63,0.00,,,0.00,Wunderground v.1.15,2013-02-01 09:06:00,
2013-02-01 04:11:00,26.5,15.2,29.76,SW,220,5.0,7.0,62,0.00,,,0.00,Wunderground v.1.15,2013-02-01 09:11:00,
2013-02-01 04:17:00,26.6,15.7,29.76,SW,229,5.0,7.0,63,0.00,,,0.00,Wunderground v.1.15,2013-02-01 09:17:00,
2013-02-01 04:22:00,26.6,15.7,29.76,WSW,257,4.0,5.0,63,0.00,,,0.00,Wunderground v.1.15,2013-02-01 09:22:00,
2013-02-01 04:28:00,26.5,16.0,29.76,WSW,238,4.0,7.0,64,0.00,,,0.00,Wunderground v.1.15,2013-02-01 09:28:00,
2013-02-01 04:34:00,26.5,16.3,29.77,WSW,239,4.0,6.0,65,0.00,,,0.00,Wunderground v.1.15,2013-02-01 09:34:00,
2013-02-01 04:40:00,26.4,16.6,29.77,West,275,4.0,4.0,66,0.00,,,0.00,Wunderground v.1.15,2013-02-01 09:40:00,
2013-02-01 04:45:00,26.4,16.6,29.77,WSW,237,3.0,5.0,66,0.00,,,0.00,Wunderground v.1.15,2013-02-01 09:45:00,
2013-02-01 04:51:00,26.4,16.9,29.77,West,277,5.0,6.0,67,0.00,,,0.00,Wunderground v.1.15,2013-02-01 09:51:00,
2013-02-01 04:57:00,26.4,16.9,29.77,SW,224,4.0,6.0,67,0.00,,,0.00,Wunderground v.1.15,2013-02-01 09:57:00,
2013-02-01 05:02:00,26.4,16.9,29.77,SW,219,3.0,4.0,67,0.00,,,0.00,Wunderground v.1.15,2013-02-01 10:02:00,
2013-02-01 05:08:00,26.4,16.6,29.77,South,190,4.0,7.0,66,0.00,,,0.00,Wunderground v.1.15,2013-02-01 10:08:00,
2013-02-01 05:13:00,26.4,16.2,29.77,WSW,238,5.0,6.0,65,0.00,,,0.00,Wunderground v.1.15,2013-02-01 10:13:00,
2013-02-01 05:19:00,26.3,16.1,29.77,West,281,5.0,7.0,65,0.00,,,0.00,Wunderground v.1.15,2013-02-01 10:19:00,
2013-02-01 05:25:00,26.3,16.1,29.78,SW,226,5.0,6.0,65,0.00,,,0.00,Wunderground v.1.15,2013-02-01 10:25:00,
2013-02-01 05:30:00,26.3,16.1,29.77,SSW,196,5.0,5.0,65,0.00,,,0.00,Wunderground v.1.15,2013-02-01 10:30:00,
2013-02-01 05:36:00,26.3,16.5,29.78,WNW,287,4.0,7.0,66,0.00,,,0.00,Wunderground v.1.15,2013-02-01 10:36:00,
2013-02-01 05:42:00,26.3,15.8,29.78,SW,229,5.0,9.0,64,0.00,,,0.00,Wunderground v.1.15,2013-02-01 10:42:00,
2013-02-01 05:47:00,26.4,15.9,29.78,WSW,253,6.0,9.0,64,0.00,,,0.00,Wunderground v.1.15,2013-02-01 10:47:00,
2013-02-01 05:54:00,26.4,16.2,29.79,WNW,285,4.0,7.0,65,0.00,,,0.00,Wunderground v.1.15,2013-02-01 10:54:00,
2013-02-01 05:59:00,26.3,16.1,29.79,SW,217,5.0,9.0,65,0.00,,,0.00,Wunderground v.1.15,2013-02-01 10:59:00,
2013-02-01 06:04:00,26.3,16.1,29.79,WSW,242,4.0,7.0,65,0.00,,,0.00,Wunderground v.1.15,2013-02-01 11:04:00,
2013-02-01 06:10:00,26.2,16.0,29.80,WSW,248,4.0,4.0,65,0.00,,,0.00,Wunderground v.1.15,2013-02-01 11:10:00,
2013-02-01 06:15:00,26.2,16.0,29.80,SW,229,4.0,7.0,65,0.00,,,0.00,Wunderground v.1.15,2013-02-01 11:15:00,
2013-02-01 06:21:00,26.1,15.9,29.80,WSW,239,4.0,4.0,65,0.00,,,0.00,Wunderground v.1.15,2013-02-01 11:21:00,
2013-02-01 06:26:00,26.0,15.8,29.80,SW,226,4.0,7.0,65,0.00,,,0.00,Wunderground v.1.15,2013-02-01 11:26:00,
2013-02-01 06:32:00,26.0,15.8,29.80,WSW,253,4.0,5.0,65,0.00,,,0.00,Wunderground v.1.15,2013-02-01 11:32:00,
2013-02-01 06:37:00,25.9,16.1,29.81,WSW,244,4.0,7.0,66,0.00,,,0.00,Wunderground v.1.15,2013-02-01 11:37:00,
2013-02-01 06:43:00,25.8,15.6,29.81,WSW,245,4.0,7.0,65,0.00,,,0.00,Wunderground v.1.15,2013-02-01 11:43:00,
2013-02-01 06:49:00,25.9,15.7,29.81,WSW,244,5.0,8.0,65,0.00,,,0.00,Wunderground v.1.15,2013-02-01 11:49:00,
2013-02-01 06:54:00,25.9,15.7,29.81,WSW,243,4.0,6.0,65,0.00,,,0.00,Wunderground v.1.15,2013-02-01 11:54:00,
2013-02-01 07:00:00,25.9,15.4,29.81,WSW,251,4.0,5.0,64,0.00,,,0.00,Wunderground v.1.15,2013-02-01 12:00:00,
2013-02-01 07:06:00,25.9,15.7,29.82,NW,315,5.0,8.0,65,0.00,,,0.00,Wunderground v.1.15,2013-02-01 12:06:00,
2013-02-01 07:12:00,25.9,15.0,29.82,SW,230,5.0,6.0,63,0.00,,,0.00,Wunderground v.1.15,2013-02-01 12:12:00,
2013-02-01 07:17:00,26.0,15.1,29.82,West,271,5.0,6.0,63,0.00,,,0.00,Wunderground v.1.15,2013-02-01 12:17:00,
2013-02-01 07:23:00,25.9,15.4,29.82,WSW,240,3.0,4.0,64,0.00,,,0.00,Wunderground v.1.15,2013-02-01 12:23:00,
2013-02-01 07:29:00,25.9,15.4,29.83,WSW,255,3.0,5.0,64,0.00,,,0.00,Wunderground v.1.15,2013-02-01 12:29:00,
2013-02-01 07:34:00,25.9,15.4,29.83,SSW,197,3.0,4.0,64,0.00,,,0.00,Wunderground v.1.15,2013-02-01 12:34:00,
2013-02-01 07:40:00,25.9,15.4,29.83,West,265,3.0,5.0,64,0.00,,,0.00,Wunderground v.1.15,2013-02-01 12:40:00,
2013-02-01 07:45:00,26.0,15.8,29.83,West,273,4.0,7.0,65,0.00,,,0.00,Wunderground v.1.15,2013-02-01 12:45:00,
2013-02-01 07:51:00,26.0,15.5,29.84,WSW,244,4.0,4.0,64,0.00,,,0.00,Wunderground v.1.15,2013-02-01 12:51:00,
2013-02-01 07:56:00,26.1,15.9,29.84,West,273,3.0,4.0,65,0.00,,,0.00,Wunderground v.1.15,2013-02-01 12:56:00,
2013-02-01 08:02:00,26.1,15.9,29.84,West,266,3.0,4.0,65,0.00,,,0.00,Wunderground v.1.15,2013-02-01 13:02:00,
2013-02-01 08:08:00,26.2,15.7,29.83,West,279,3.0,5.0,64,0.00,,,0.00,Wunderground v.1.15,2013-02-01 13:08:00,
2013-02-01 08:14:00,26.3,15.8,29.83,NW,313,3.0,8.0,64,0.00,,,0.00,Wunderground v.1.15,2013-02-01 13:14:00,
2013-02-01 08:19:00,26.5,15.6,29.83,WSW,253,4.0,8.0,63,0.00,,,0.00,Wunderground v.1.15,2013-02-01 13:19:00,
2013-02-01 08:25:00,26.7,15.8,29.83,NW,315,3.0,4.0,63,0.00,,,0.00,Wunderground v.1.15,2013-02-01 13:25:00,
2013-02-01 08:30:00,26.9,15.2,29.83,WNW,302,3.0,3.0,61,0.00,,,0.00,Wunderground v.1.15,2013-02-01 13:30:00,
2013-02-01 08:35:00,27.0,14.9,29.83,WSW,245,5.0,12.0,60,0.00,,,0.00,Wunderground v.1.15,2013-02-01 13:35:00,
2013-02-01 08:41:00,27.0,14.6,29.82,WNW,300,7.0,10.0,59,0.00,,,0.00,Wunderground v.1.15,2013-02-01 13:41:00,
2013-02-01 08:47:00,27.1,14.7,29.82,WSW,258,7.0,10.0,59,0.00,,,0.00,Wunderground v.1.15,2013-02-01 13:47:00,
2013-02-01 08:53:00,27.2,14.4,29.82,West,275,7.0,9.0,58,0.00,,,0.00,Wunderground v.1.15,2013-02-01 13:53:00,
2013-02-01 08:58:00,27.1,14.3,29.83,NW,323,8.0,16.0,58,0.00,,,0.00,Wunderground v.1.15,2013-02-01 13:58:00,
2013-02-01 09:04:00,27.1,13.9,29.83,West,268,8.0,11.0,57,0.00,,,0.00,Wunderground v.1.15,2013-02-01 14:04:00,
2013-02-01 09:09:00,27.2,14.4,29.84,WSW,245,7.0,11.0,58,0.00,,,0.00,Wunderground v.1.15,2013-02-01 14:09:00,
2013-02-01 09:15:00,27.2,14.0,29.83,SW,227,6.0,10.0,57,0.00,,,0.00,Wunderground v.1.15,2013-02-01 14:15:00,
2013-02-01 09:20:00,27.3,13.7,29.83,West,281,6.0,10.0,56,0.00,,,0.00,Wunderground v.1.15,2013-02-01 14:20:00,
2013-02-01 09:26:00,27.4,13.3,29.83,West,279,7.0,12.0,55,0.00,,,0.00,Wunderground v.1.15,2013-02-01 14:26:00,
2013-02-01 09:33:00,27.4,12.9,29.84,West,279,7.0,13.0,54,0.00,,,0.00,Wunderground v.1.15,2013-02-01 14:33:00,
2013-02-01 09:39:00,27.5,13.4,29.84,NW,313,6.0,13.0,55,0.00,,,0.00,Wunderground v.1.15,2013-02-01 14:39:00,
2013-02-01 09:45:00,27.5,13.0,29.84,WSW,252,8.0,11.0,54,0.00,,,0.00,Wunderground v.1.15,2013-02-01 14:45:00,
2013-02-01 09:51:00,27.5,13.0,29.84,West,273,8.0,9.0,54,0.00,,,0.00,Wunderground v.1.15,2013-02-01 14:51:00,
2013-02-01 09:56:00,27.5,13.0,29.84,West,278,8.0,13.0,54,0.00,,,0.00,Wunderground v.1.15,2013-02-01 14:56:00,
2013-02-01 10:02:00,27.5,12.6,29.85,WNW,293,8.0,12.0,53,0.00,,,0.00,Wunderground v.1.15,2013-02-01 15:02:00,
2013-02-01 10:08:00,27.7,12.8,29.85,WNW,283,7.0,15.0,53,0.00,,,0.00,Wunderground v.1.15,2013-02-01 15:08:00,
2013-02-01 10:13:00,27.8,13.3,29.85,NW,309,7.0,10.0,54,0.00,,,0.00,Wunderground v.1.15,2013-02-01 15:13:00,
2013-02-01 10:19:00,27.9,13.4,29.85,West,269,7.0,12.0,54,0.00,,,0.00,Wunderground v.1.15,2013-02-01 15:19:00,
2013-02-01 10:24:00,27.9,13.4,29.85,WNW,300,6.0,9.0,54,0.00,,,0.00,Wunderground v.1.15,2013-02-01 15:24:00,
2013-02-01 10:30:00,28.0,13.1,29.86,WSW,241,5.0,5.0,53,0.00,,,0.00,Wunderground v.1.15,2013-02-01 15:30:00,
2013-02-01 10:35:00,28.3,12.9,29.85,NW,312,6.0,11.0,52,0.00,,,0.00,Wunderground v.1.15,2013-02-01 15:35:00,
2013-02-01 10:41:00,28.3,12.9,29.85,WNW,294,7.0,10.0,52,0.00,,,0.00,Wunderground v.1.15,2013-02-01 15:41:00,
2013-02-01 10:47:00,28.3,12.5,29.85,WNW,290,8.0,15.0,51,0.00,,,0.00,Wunderground v.1.15,2013-02-01 15:47:00,
2013-02-01 10:53:00,28.4,13.0,29.85,WNW,292,6.0,8.0,52,0.00,,,0.00,Wunderground v.1.15,2013-02-01 15:53:00,
2013-02-01 10:58:00,28.6,12.7,29.84,WNW,294,5.0,8.0,51,0.00,,,0.00,Wunderground v.1.15,2013-02-01 15:58:00,
2013-02-01 11:04:00,28.6,11.8,29.84,NNW,341,6.0,7.0,49,0.00,,,0.00,Wunderground v.1.15,2013-02-01 16:04:00,
2013-02-01 11:09:00,28.6,11.8,29.84,NE,40,6.0,7.0,49,0.00,,,0.00,Wunderground v.1.15,2013-02-01 16:09:00,
2013-02-01 11:14:00,28.7,12.4,29.85,WNW,303,5.0,6.0,50,0.00,,,0.00,Wunderground v.1.15,2013-02-01 16:14:00,
2013-02-01 11:20:00,28.8,12.0,29.85,SW,227,5.0,6.0,49,0.00,,,0.00,Wunderground v.1.15,2013-02-01 16:20:00,
2013-02-01 11:25:00,28.8,12.5,29.84,WNW,286,5.0,8.0,50,0.00,,,0.00,Wunderground v.1.15,2013-02-01 16:25:00,
2013-02-01 11:31:00,28.9,11.2,29.84,NNE,17,5.0,9.0,47,0.00,,,0.00,Wunderground v.1.15,2013-02-01 16:31:00,
2013-02-01 11:36:00,28.9,10.7,29.84,NW,325,6.0,9.0,46,0.00,,,0.00,Wunderground v.1.15,2013-02-01 16:36:00,
2013-02-01 11:42:00,28.9,11.2,29.84,NW,315,7.0,12.0,47,0.00,,,0.00,Wunderground v.1.15,2013-02-01 16:42:00,
2013-02-01 11:48:00,28.8,10.6,29.83,WNW,284,9.0,15.0,46,0.00,,,0.00,Wunderground v.1.15,2013-02-01 16:48:00,
2013-02-01 11:54:00,29.2,11.4,29.83,WNW,292,7.0,11.0,47,0.00,,,0.00,Wunderground v.1.15,2013-02-01 16:54:00,
2013-02-01 11:59:00,29.2,11.0,29.83,NNW,335,8.0,14.0,46,0.00,,,0.00,Wunderground v.1.15,2013-02-01 16:59:00,
2013-02-01 12:04:00,29.3,11.1,29.83,WNW,287,8.0,15.0,46,0.00,,,0.00,Wunderground v.1.15,2013-02-01 17:04:00,
2013-02-01 12:10:00,29.5,11.2,29.83,NW,312,9.0,9.0,46,0.00,,,0.00,Wunderground v.1.15,2013-02-01 17:10:00,
2013-02-01 12:15:00,29.7,11.4,29.83,West,269,8.0,12.0,46,0.00,,,0.00,Wunderground v.1.15,2013-02-01 17:15:00,
2013-02-01 12:21:00,29.5,11.7,29.83,WNW,297,6.0,6.0,47,0.00,,,0.00,Wunderground v.1.15,2013-02-01 17:21:00,
2013-02-01 12:26:00,29.2,11.9,29.83,West,278,7.0,16.0,48,0.00,,,0.00,Wunderground v.1.15,2013-02-01 17:26:00,
2013-02-01 12:32:00,28.9,12.1,29.83,NNW,335,7.0,10.0,49,0.00,,,0.00,Wunderground v.1.15,2013-02-01 17:32:00,
2013-02-01 12:38:00,29.1,11.4,29.83,NW,315,7.0,12.0,47,0.00,,,0.00,Wunderground v.1.15,2013-02-01 17:38:00,
2013-02-01 12:43:00,29.4,12.1,29.83,NNW,332,7.0,15.0,48,0.00,,,0.00,Wunderground v.1.15,2013-02-01 17:43:00,
2013-02-01 12:49:00,29.4,11.1,29.83,NNW,331,8.0,15.0,46,0.00,,,0.00,Wunderground v.1.15,2013-02-01 17:49:00,
2013-02-01 12:55:00,29.3,10.6,29.83,NW,311,7.0,11.0,45,0.00,,,0.00,Wunderground v.1.15,2013-02-01 17:55:00,
2013-02-01 13:00:00,29.6,10.8,29.84,ENE,69,5.0,7.0,45,0.00,,,0.00,Wunderground v.1.15,2013-02-01 18:00:00,
2013-02-01 13:06:00,29.8,9.5,29.84,WNW,286,7.0,13.0,42,0.00,,,0.00,Wunderground v.1.15,2013-02-01 18:06:00,
2013-02-01 13:12:00,29.6,9.3,29.84,WNW,285,7.0,9.0,42,0.00,,,0.00,Wunderground v.1.15,2013-02-01 18:12:00,
2013-02-01 13:18:00,29.2,10.0,29.84,WNW,298,8.0,12.0,44,0.00,,,0.00,Wunderground v.1.15,2013-02-01 18:18:00,
2013-02-01 13:23:00,29.1,9.9,29.85,North,355,7.0,10.0,44,0.00,,,0.00,Wunderground v.1.15,2013-02-01 18:23:00,
2013-02-01 13:29:00,29.0,9.8,29.84,West,277,7.0,16.0,44,0.00,,,0.00,Wunderground v.1.15,2013-02-01 18:29:00,
2013-02-01 13:34:00,29.1,9.9,29.85,NW,323,8.0,12.0,44,0.00,,,0.00,Wunderground v.1.15,2013-02-01 18:34:00,
2013-02-01 13:39:00,29.3,11.1,29.85,NW,323,8.0,12.0,46,0.00,,,0.00,Wunderground v.1.15,2013-02-01 18:39:00,
2013-02-01 13:45:00,30.2,10.4,29.85,WSW,242,8.0,13.0,43,0.00,,,0.00,Wunderground v.1.15,2013-02-01 18:45:00,
2013-02-01 13:50:00,30.4,10.5,29.85,WSW,251,10.0,12.0,43,0.00,,,0.00,Wunderground v.1.15,2013-02-01 18:50:00,
2013-02-01 13:56:00,30.4,9.5,29.86,West,276,8.0,23.0,41,0.00,,,0.00,Wunderground v.1.15,2013-02-01 18:56:00,
2013-02-01 14:01:00,29.9,7.9,29.86,NNW,344,7.0,10.0,39,0.00,,,0.00,Wunderground v.1.15,2013-02-01 19:01:00,
2013-02-01 14:07:00,30.3,8.8,29.86,NNW,346,5.0,10.0,40,0.00,,,0.00,Wunderground v.1.15,2013-02-01 19:07:00,
2013-02-01 14:12:00,31.0,8.3,29.86,NNW,327,5.0,10.0,38,0.00,,,0.00,Wunderground v.1.15,2013-02-01 19:12:00,
2013-02-01 14:18:00,31.3,8.6,29.87,West,275,8.0,16.0,38,0.00,,,0.00,Wunderground v.1.15,2013-02-01 19:18:00,
2013-02-01 14:23:00,30.7,9.2,29.87,NW,305,11.0,13.0,40,0.00,,,0.00,Wunderground v.1.15,2013-02-01 19:23:00,
2013-02-01 14:29:00,30.2,10.9,29.88,SW,220,10.0,17.0,44,0.00,,,0.00,Wunderground v.1.15,2013-02-01 19:29:00,
2013-02-01 14:35:00,29.3,8.5,29.88,WSW,252,10.0,15.0,41,0.00,,,0.00,Wunderground v.1.15,2013-02-01 19:35:00,
2013-02-01 14:40:00,29.3,8.5,29.88,West,272,10.0,27.0,41,0.00,,,0.00,Wunderground v.1.15,2013-02-01 19:40:00,
2013-02-01 14:46:00,29.6,9.3,29.88,NNW,327,10.0,27.0,42,0.00,,,0.00,Wunderground v.1.15,2013-02-01 19:46:00,
2013-02-01 14:52:00,29.7,8.8,29.89,NW,326,10.0,11.0,41,0.00,,,0.00,Wunderground v.1.15,2013-02-01 19:52:00,
2013-02-01 14:58:00,29.6,8.7,29.89,WNW,294,8.0,12.0,41,0.00,,,0.00,Wunderground v.1.15,2013-02-01 19:58:00,
2013-02-01 15:04:00,29.5,8.1,29.89,West,261,9.0,13.0,40,0.00,,,0.00,Wunderground v.1.15,2013-02-01 20:04:00,
2013-02-01 15:09:00,29.4,9.1,29.90,West,269,9.0,16.0,42,0.00,,,0.00,Wunderground v.1.15,2013-02-01 20:09:00,
2013-02-01 15:14:00,29.3,9.5,29.90,West,279,7.0,13.0,43,0.00,,,0.00,Wunderground v.1.15,2013-02-01 20:14:00,
2013-02-01 15:20:00,29.3,9.0,29.91,WNW,299,8.0,10.0,42,0.00,,,0.00,Wunderground v.1.15,2013-02-01 20:20:00,
2013-02-01 15:26:00,29.3,8.5,29.91,WNW,286,7.0,13.0,41,0.00,,,0.00,Wunderground v.1.15,2013-02-01 20:26:00,
2013-02-01 15:31:00,29.5,8.7,29.91,West,281,7.0,9.0,41,0.00,,,0.00,Wunderground v.1.15,2013-02-01 20:31:00,
2013-02-01 15:36:00,29.4,9.1,29.92,WNW,300,10.0,21.0,42,0.00,,,0.00,Wunderground v.1.15,2013-02-01 20:36:00,
2013-02-01 15:42:00,29.2,9.4,29.92,WNW,288,11.0,11.0,43,0.00,,,0.00,Wunderground v.1.15,2013-02-01 20:42:00,
2013-02-01 15:47:00,28.9,9.7,29.93,WNW,287,9.0,14.0,44,0.00,,,0.00,Wunderground v.1.15,2013-02-01 20:47:00,
2013-02-01 15:53:00,28.6,9.9,29.93,WNW,289,8.0,13.0,45,0.00,,,0.00,Wunderground v.1.15,2013-02-01 20:53:00,
2013-02-01 15:59:00,28.5,9.8,29.93,West,271,7.0,13.0,45,0.00,,,0.00,Wunderground v.1.15,2013-02-01 20:59:00,
2013-02-01 16:05:00,28.3,8.6,29.94,West,280,8.0,17.0,43,0.00,,,0.00,Wunderground v.1.15,2013-02-01 21:05:00,
2013-02-01 16:10:00,28.2,8.0,29.94,NNW,333,9.0,14.0,42,0.00,,,0.00,Wunderground v.1.15,2013-02-01 21:10:00,
2013-02-01 16:16:00,28.1,7.9,29.95,WNW,286,10.0,15.0,42,0.00,,,0.00,Wunderground v.1.15,2013-02-01 21:16:00,
2013-02-01 16:22:00,28.1,7.9,29.95,WNW,290,9.0,12.0,42,0.00,,,0.00,Wunderground v.1.15,2013-02-01 21:22:00,
2013-02-01 16:29:00,27.8,7.6,29.95,West,281,10.0,18.0,42,0.00,,,0.00,Wunderground v.1.15,2013-02-01 21:29:00,
2013-02-01 16:35:00,27.6,8.0,29.96,WNW,302,9.0,10.0,43,0.00,,,0.00,Wunderground v.1.15,2013-02-01 21:35:00,
2013-02-01 16:52:00,27.3,6.1,29.98,North,5,10.0,10.0,40,0.00,,,0.00,Wunderground v.1.15,2013-02-01 21:52:00,
2013-02-01 16:58:00,27.1,6.5,29.98,WNW,296,8.0,14.0,41,0.00,,,0.00,Wunderground v.1.15,2013-02-01 21:58:00,
2013-02-01 17:03:00,27.0,6.9,29.98,WNW,293,7.0,11.0,42,0.00,,,0.00,Wunderground v.1.15,2013-02-01 22:03:00,
2013-02-01 17:08:00,26.8,6.7,29.99,West,271,7.0,13.0,42,0.00,,,0.00,Wunderground v.1.15,2013-02-01 22:08:00,
2013-02-01 17:14:00,26.8,7.8,29.99,NW,311,7.0,9.0,44,0.00,,,0.00,Wunderground v.1.15,2013-02-01 22:14:00,
2013-02-01 17:19:00,26.7,7.7,30.00,WNW,302,6.0,10.0,44,0.00,,,0.00,Wunderground v.1.15,2013-02-01 22:19:00,
2013-02-01 17:25:00,26.5,8.0,30.01,WNW,289,7.0,13.0,45,0.00,,,0.00,Wunderground v.1.15,2013-02-01 22:25:00,
2013-02-01 17:30:00,26.5,9.0,30.01,West,269,8.0,8.0,47,0.00,,,0.00,Wunderground v.1.15,2013-02-01 22:30:00,
2013-02-01 17:35:00,26.3,8.8,30.01,WNW,296,6.0,8.0,47,0.00,,,0.00,Wunderground v.1.15,2013-02-01 22:35:00,
2013-02-01 17:41:00,26.2,8.2,30.02,West,274,5.0,12.0,46,0.00,,,0.00,Wunderground v.1.15,2013-02-01 22:41:00,
2013-02-01 17:47:00,26.2,7.2,30.02,NW,313,6.0,12.0,44,0.00,,,0.00,Wunderground v.1.15,2013-02-01 22:47:00,
2013-02-01 17:53:00,26.1,7.1,30.03,NNW,346,6.0,7.0,44,0.00,,,0.00,Wunderground v.1.15,2013-02-01 22:53:00,
2013-02-01 17:59:00,26.0,6.5,30.03,WNW,292,6.0,10.0,43,0.00,,,0.00,Wunderground v.1.15,2013-02-01 22:59:00,
2013-02-01 18:04:00,26.0,6.0,30.03,West,260,6.0,15.0,42,0.00,,,0.00,Wunderground v.1.15,2013-02-01 23:04:00,
2013-02-01 18:10:00,25.9,5.9,30.04,NW,325,6.0,9.0,42,0.00,,,0.00,Wunderground v.1.15,2013-02-01 23:10:00,
2013-02-01 18:16:00,25.8,5.3,30.05,WNW,300,7.0,10.0,41,0.00,,,0.00,Wunderground v.1.15,2013-02-01 23:16:00,
2013-02-01 18:22:00,25.7,5.7,30.05,North,355,7.0,9.0,42,0.00,,,0.00,Wunderground v.1.15,2013-02-01 23:22:00,
2013-02-01 18:27:00,25.7,5.7,30.05,NW,315,6.0,9.0,42,0.00,,,0.00,Wunderground v.1.15,2013-02-01 23:27:00,
2013-02-01 18:34:00,25.7,5.7,30.06,West,276,6.0,6.0,42,0.00,,,0.00,Wunderground v.1.15,2013-02-01 23:34:00,
2013-02-01 18:39:00,25.5,5.6,30.06,NW,309,5.0,8.0,42,0.00,,,0.00,Wunderground v.1.15,2013-02-01 23:39:00,
2013-02-01 18:45:00,25.4,6.0,30.07,WNW,288,6.0,9.0,43,0.00,,,0.00,Wunderground v.1.15,2013-02-01 23:45:00,
2013-02-01 18:50:00,25.4,6.0,30.07,NNE,25,7.0,7.0,43,0.00,,,0.00,Wunderground v.1.15,2013-02-01 23:50:00,
2013-02-01 18:56:00,25.3,6.4,30.07,NW,307,6.0,9.0,44,0.00,,,0.00,Wunderground v.1.15,2013-02-01 23:56:00,
2013-02-01 19:01:00,25.2,6.3,30.08,WNW,283,5.0,6.0,44,0.00,,,0.00,Wunderground v.1.15,2013-02-02 00:01:00,
2013-02-01 19:07:00,25.1,7.2,30.08,WNW,298,6.0,7.0,46,0.00,,,0.00,Wunderground v.1.15,2013-02-02 00:07:00,
2013-02-01 19:14:00,24.9,7.0,30.08,WNW,292,4.0,8.0,46,0.00,,,0.00,Wunderground v.1.15,2013-02-02 00:14:00,
2013-02-01 19:19:00,24.8,7.4,30.08,SW,234,5.0,8.0,47,0.00,,,0.00,Wunderground v.1.15,2013-02-02 00:19:00,
2013-02-01 19:25:00,24.7,7.3,30.09,WNW,292,5.0,5.0,47,0.00,,,0.00,Wunderground v.1.15,2013-02-02 00:25:00,
2013-02-01 19:30:00,24.6,7.7,30.09,West,265,4.0,5.0,48,0.00,,,0.00,Wunderground v.1.15,2013-02-02 00:30:00,
2013-02-01 19:36:00,24.5,7.6,30.09,NW,315,4.0,9.0,48,0.00,,,0.00,Wunderground v.1.15,2013-02-02 00:36:00,
2013-02-01 19:41:00,24.5,7.6,30.10,WNW,288,5.0,7.0,48,0.00,,,0.00,Wunderground v.1.15,2013-02-02 00:41:00,
2013-02-01 19:47:00,24.5,8.0,30.10,NW,306,5.0,7.0,49,0.00,,,0.00,Wunderground v.1.15,2013-02-02 00:47:00,
2013-02-01 19:52:00,24.4,7.9,30.10,WNW,288,5.0,9.0,49,0.00,,,0.00,Wunderground v.1.15,2013-02-02 00:52:00,
2013-02-01 19:58:00,24.4,7.9,30.10,WNW,291,5.0,9.0,49,0.00,,,0.00,Wunderground v.1.15,2013-02-02 00:58:00,
2013-02-01 20:03:00,24.4,7.9,30.11,WNW,302,5.0,7.0,49,0.00,,,0.00,Wunderground v.1.15,2013-02-02 01:03:00,
2013-02-01 20:09:00,24.3,7.9,30.11,WNW,294,5.0,11.0,49,0.00,,,0.00,Wunderground v.1.15,2013-02-02 01:09:00,
2013-02-01 20:14:00,24.3,7.9,30.11,NNE,14,6.0,8.0,49,0.00,,,0.00,Wunderground v.1.15,2013-02-02 01:14:00,
2013-02-01 20:20:00,24.2,8.2,30.11,West,267,5.0,5.0,50,0.00,,,0.00,Wunderground v.1.15,2013-02-02 01:20:00,
2013-02-01 20:26:00,24.1,8.1,30.12,WNW,288,5.0,8.0,50,0.00,,,0.00,Wunderground v.1.15,2013-02-02 01:26:00,
2013-02-01 20:31:00,24.1,8.6,30.12,WNW,301,7.0,8.0,51,0.00,,,0.00,Wunderground v.1.15,2013-02-02 01:31:00,
2013-02-01 20:37:00,24.1,8.6,30.12,NW,305,8.0,11.0,51,0.00,,,0.00,Wunderground v.1.15,2013-02-02 01:37:00,
2013-02-01 20:44:00,24.0,8.9,30.13,West,259,7.0,9.0,52,0.00,,,0.00,Wunderground v.1.15,2013-02-02 01:44:00,
2013-02-01 20:49:00,24.0,8.9,30.13,NW,315,6.0,9.0,52,0.00,,,0.00,Wunderground v.1.15,2013-02-02 01:49:00,
2013-02-01 20:55:00,23.8,9.1,30.13,West,275,5.0,13.0,53,0.00,,,0.00,Wunderground v.1.15,2013-02-02 01:55:00,
2013-02-01 21:00:00,23.8,9.1,30.13,NW,319,5.0,5.0,53,0.00,,,0.00,Wunderground v.1.15,2013-02-02 02:00:00,
2013-02-01 21:06:00,23.7,9.5,30.13,WNW,298,5.0,8.0,54,0.00,,,0.00,Wunderground v.1.15,2013-02-02 02:06:00,
2013-02-01 21:11:00,23.7,9.5,30.14,West,281,7.0,12.0,54,0.00,,,0.00,Wunderground v.1.15,2013-02-02 02:11:00,
2013-02-01 21:17:00,23.7,9.9,30.14,WNW,298,6.0,12.0,55,0.00,,,0.00,Wunderground v.1.15,2013-02-02 02:17:00,
2013-02-01 21:23:00,23.6,9.8,30.14,WNW,294,5.0,9.0,55,0.00,,,0.00,Wunderground v.1.15,2013-02-02 02:23:00,
2013-02-01 21:29:00,23.5,9.7,30.14,WNW,298,6.0,9.0,55,0.00,,,0.00,Wunderground v.1.15,2013-02-02 02:29:00,
2013-02-01 21:34:00,23.4,10.0,30.14,NW,308,4.0,6.0,56,0.00,,,0.00,Wunderground v.1.15,2013-02-02 02:34:00,
2013-02-01 21:40:00,23.3,10.3,30.15,WNW,292,4.0,4.0,57,0.00,,,0.00,Wunderground v.1.15,2013-02-02 02:40:00,
2013-02-01 21:45:00,23.3,10.3,30.15,WSW,253,4.0,4.0,57,0.00,,,0.00,Wunderground v.1.15,2013-02-02 02:45:00,
2013-02-01 21:51:00,23.2,10.6,30.15,West,265,4.0,5.0,58,0.00,,,0.00,Wunderground v.1.15,2013-02-02 02:51:00,
2013-02-01 21:57:00,23.2,10.6,30.15,NW,313,4.0,9.0,58,0.00,,,0.00,Wunderground v.1.15,2013-02-02 02:57:00,
2013-02-01 22:02:00,23.1,10.9,30.15,WNW,290,4.0,4.0,59,0.00,,,0.00,Wunderground v.1.15,2013-02-02 03:02:00,
2013-02-01 22:09:00,23.0,10.8,30.15,West,269,4.0,6.0,59,0.00,,,0.00,Wunderground v.1.15,2013-02-02 03:09:00,
2013-02-01 22:14:00,23.0,10.8,30.16,NW,318,6.0,16.0,59,0.00,,,0.00,Wunderground v.1.15,2013-02-02 03:14:00,
2013-02-01 22:19:00,23.1,11.3,30.16,West,265,6.0,16.0,60,0.00,,,0.00,Wunderground v.1.15,2013-02-02 03:19:00,
2013-02-01 22:25:00,23.0,11.2,30.16,WSW,248,5.0,10.0,60,0.00,,,0.00,Wunderground v.1.15,2013-02-02 03:25:00,
2013-02-01 22:31:00,23.0,11.5,30.16,WNW,292,6.0,6.0,61,0.00,,,0.00,Wunderground v.1.15,2013-02-02 03:31:00,
2013-02-01 22:37:00,22.9,11.8,30.17,WNW,300,5.0,7.0,62,0.00,,,0.00,Wunderground v.1.15,2013-02-02 03:37:00,
2013-02-01 22:42:00,22.9,11.8,30.17,WSW,251,6.0,8.0,62,0.00,,,0.00,Wunderground v.1.15,2013-02-02 03:42:00,
2013-02-01 22:48:00,22.8,12.4,30.17,West,278,6.0,8.0,64,0.00,,,0.00,Wunderground v.1.15,2013-02-02 03:48:00,
2013-02-01 22:54:00,22.8,12.4,30.17,WNW,283,5.0,6.0,64,0.00,,,0.00,Wunderground v.1.15,2013-02-02 03:54:00,
2013-02-01 22:59:00,22.7,12.7,30.17,NW,324,5.0,7.0,65,0.00,,,0.00,Wunderground v.1.15,2013-02-02 03:59:00,
2013-02-01 23:04:00,22.7,12.7,30.18,West,281,6.0,11.0,65,0.00,,,0.00,Wunderground v.1.15,2013-02-02 04:04:00,
2013-02-01 23:10:00,22.7,12.7,30.18,NW,308,7.0,7.0,65,0.00,,,0.00,Wunderground v.1.15,2013-02-02 04:10:00,
2013-02-01 23:16:00,22.6,12.9,30.18,West,266,5.0,7.0,66,0.00,,,0.00,Wunderground v.1.15,2013-02-02 04:16:00,
2013-02-01 23:21:00,22.6,12.9,30.18,WNW,300,5.0,9.0,66,0.00,,,0.00,Wunderground v.1.15,2013-02-02 04:21:00,
2013-02-01 23:26:00,22.5,12.8,30.18,WSW,251,5.0,9.0,66,0.00,,,0.00,Wunderground v.1.15,2013-02-02 04:26:00,
2013-02-01 23:32:00,22.4,13.1,30.18,WNW,294,5.0,6.0,67,0.00,,,0.00,Wunderground v.1.15,2013-02-02 04:32:00,
2013-02-01 23:38:00,22.4,13.4,30.19,WNW,284,5.0,6.0,68,0.00,,,0.00,Wunderground v.1.15,2013-02-02 04:38:00,
2013-02-01 23:44:00,22.3,13.3,30.19,WNW,298,5.0,7.0,68,0.00,,,0.00,Wunderground v.1.15,2013-02-02 04:44:00,
2013-02-01 23:50:00,22.3,13.3,30.19,WSW,246,6.0,9.0,68,0.00,,,0.00,Wunderground v.1.15,2013-02-02 04:50:00,
2013-02-01 23:56:00,22.2,13.6,30.19,West,259,6.0,9.0,69,0.00,,,0.00,Wunderground v.1.15,2013-02-02 04:56:00,